sat.trackr.live / text

‹ back to catalog

KUIPER-00249

NORAD 67154 · 2025-301X

PAYLOAD ACTIVE UNKNOWN

§ Identity

Operator
Country
US
Launch date
2025-12-16
Launch site
AFETR
Launch vehicle
Mass (kg)
RCS (m²)

External: N2YO · Heavens-Above · Gunter

§ Orbital elements

Epoch: 2026-09-20T05:21:30.180672Z

Period
97.30 min
Inclination
51.9003°
Eccentricity
0.0000487
Mean motion
14.79932268 rev/d
Perigee alt
629.2 km
Apogee alt
629.9 km
Semi-major
7,007.7 km
B*
4.8452e-5
RAAN
275.4097°
Arg perigee
58.0673°
Mean anomaly
302.0337°
Rev number
4,267

§ Raw data

KUIPER-002491 67154U 25301X   26263.22326598  .00000148  00000+0  48452-4 0  99992 67154  51.9003 275.4097 0000487  58.0673 302.0337 14.79932268 42673

JSON: /api/v1/satellites/67154 · /tle

For live sub-satellite position, see the globe view (requires WebGL).

§ Visibility from observer

Set your observer location to see the next 7 days of passes ≥ 10°. The values pass through the URL so the page stays shareable.

No JS? Fill the form by hand. The geolocation button needs JavaScript.